Location: Battersea Observatory
(44.4318°N, 76.3841°W)
Time: 21:18:52
(UTC-04:00)

Tiros 1 despin weight - Pass Details

Date: 30 January 2022
Orbit: 592 x 639 km, 48.2° (Epoch: 25 May)

Event Time Altitude Azimuth Distance (km) Brightness Sun altitude
Rises 17:28:30 0° 276° (W) 2,874 ? -3.5°
Reaches altitude 10° 17:30:51 10° 281° (W) 1,978 ? -3.9°
Maximum altitude 17:35:18 52° 358° (N) 774 ? -4.7°
Drops below altitude 10° 17:39:44 11° 76° (ENE) 1,975 ? -5.4°
Enters shadow 17:40:36 - 78° (ENE) 2,302 ? -5.6°
Sets 17:42:13 0° 81° (E) 2,924 - -5.8°
